Regional Weather Roundup
Issued by NWS

Home | Current Version | Previous Version | Text Only | Print | Product List | Glossary On
Versions: 1 2 3 4 5 6 7 8 9 10 11 12 13 14 15 16 17 18 19 20 21 22 23 24 25 26 27 28 29 30 31 32 33 34 35 36 37 38 39 40 41 42 43 44 45 46 47 48 49 50
000
ASUS44 KEWX 190702
RWRTX
SOUTH TEXAS REGIONAL WEATHER ROUNDUP
NATIONAL WEATHER SERVICE AUSTIN/SAN ANTONIO TX
100 AM CST FRI DEC 19 2014

NOTE: "FAIR" INDICATED FEW OR NO CLOUDS BELOW 12,000 FEET WITH NO
SIGNIFICANT WEATHER AND/OR OBSTRUCTIONS TO VISIBILITY.

* - THESE STATIONS ARE NOT NWS OR FAA STATIONS...AND ARE NOT SUBJECT
    TO NWS AND FAA QUALITY CONTROL.

TXZ171-172-183>190-190800-
TEXAS HILL COUNTRY AND EDWARDS PLATEAU

CITY           SKY/WX    TMP DP  RH WIND       PRES   REMARKS
JUNCTION       CLOUDY    54  52  93 E14       30.06F FOG
*LLANO         CLOUDY    50  46  87 E7        30.15S WCI  47
BURNET         LGT RAIN  47  46  97 NE7       30.12S FOG     WCI  44
*HORSESHOE BAY DRIZZLE   49  47  93 N3        30.10F
*KERRVILLE     CLOUDY    54  52  94 NE9       30.07F FOG
*FREDERICKSBRG CLOUDY    50  49  97 NE7       30.09S FOG     WCI  47
*ROCKSPRINGS   CLOUDY    59  57  94 E5        30.06F
*BOERNE STAGE  CLOUDY    52  50  93 NE7       30.07S
*CASTROVILLE   RAIN      57  57  97 MISG      30.06S
HONDO          LGT RAIN  58  57  97 NE6       30.05F
*UVALDE        CLOUDY    55  54  94 E7        30.03F
DEL RIO        CLOUDY    61  55  81 NE6       30.01F
LAUGHLIN AFB   DRIZZLE   61  55  82 CALM      30.02F
CARRIZO SPRGS  CLOUDY    59  59 100 E6        30.00F FOG
$$

TXZ173-191>194-202-209-217>225-228-190800-
CENTRAL AND SOUTH CENTRAL TEXAS

CITY           SKY/WX    TMP DP  RH WIND       PRES   REMARKS
GEORGETOWN     CLOUDY    48  46  93 N10       30.09F WCI  44
AUSTIN/BERGSTM TSTM      50  49  96 N16       30.08S FOG     WCI  44
AUSTIN/MABRY   LGT RAIN  49  48  97 N7        30.09S FOG     WCI  46
*AUSTIN/EXEC   RAIN      48  48 100 N15       30.08F WCI  42
*LAGO VISTA    LGT RAIN  48  46  93 N13       30.09F WCI  43
SAN MARCOS     CLOUDY    52  48  87 N14       30.07S
NEW BRAUNFELS  LGT RAIN  53  32  44 N12       30.04F
RANDOLPH AFB   DRIZZLE   54  54 100 N9        30.05S
PT SAN ANTONIO LGT RAIN  55  55 100 N8        30.02F FOG
SAN ANTONIO    LGT RAIN  55  53  93 N12       30.05S FOG
STINSON FIELD  LGT RAIN  56  54  93 NE10      30.03S
*PLEASANTON    CLOUDY    57  56  96 N8        30.04S
*LA GRANGE     TSTM      57  56  97 NE6       30.04S
*GIDDINGS      HVY RAIN  52  51  97 NE10      30.09F
*GONZALES      CLOUDY    57  56  98 N8        30.04S
$$

TXZ163>164-176>182-195>201-210>213-226-227-235-190800-
SOUTHEAST TEXAS

CITY           SKY/WX    TMP DP  RH WIND       PRES   REMARKS
COLLEGE STN    HVY RAIN  53  52  96 NE9       30.07R FOG
*BRYAN         LGT RAIN  52  52 100 NE7       30.09S
*CALDWELL      TSTM      52  52 100 N7        30.11S
*CROCKETT      CLOUDY    54  54 100 NE8       30.13F
*BRENHAM       RAIN      57  56  96 N8        30.07R
HUNTSVILLE     HVY RAIN  54  53  97 NE8       30.05F FOG
CONROE         RAIN      56  55  97 CALM      30.08R FOG
HOUSTON BUSH   TSTM      58  57  97 W8        30.08R FOG
HOUSTON HOBBY  TSTM      60  59  96 E8        30.00F FOG
*HOUSTON SW AP TSTM      52  52 100 E5        30.01F
PEARLAND       RAIN      61  59  93 NE9       30.01F FOG
HOUSTON HOOKS  NOT AVBL
ELLINGTON FLD  RAIN      61  61 100 N6        30.02F FOG
SUGAR LAND     RAIN      62  60  93 NE7       30.01R FOG
*HOUSTON EXEC  HVY RAIN  59  59 100 NE15G24   30.02F VSB 1/2
*CLEVELAND MUN TSTM      55  55  99 E5        30.06F
*WHARTON       DRIZZLE   62  61  97 E6        30.01S
*COLUMBUS      TSTM      59  58  97 N8        30.02F
$$

TXZ214>216-236>238-190800-
THE UPPER TEXAS COAST

CITY           SKY/WX    TMP DP  RH WIND       PRES   REMARKS
*ORANGE        CLOUDY    56  55  97 NE10      30.04F
PORT ARTHUR    LGT RAIN  58  56  93 NE14      30.01F FOG
GALVESTON      CLOUDY    61  61 100 E15       30.00F
ANGLETON       CLOUDY    61  61 100 E5        30.00F
*BAY CITY        N/A     64  64 100 E9        29.99F
PALACIOS       NOT AVBL
$$

TXZ229>234-239>247-190800-
TEXAS COASTAL BEND AND RIO GRANDE PLAINS

CITY           SKY/WX    TMP DP  RH WIND       PRES   REMARKS
VICTORIA       CLOUDY    64  63  96 N7        30.00S FOG
*BEEVILLE      RAIN      64  64 100 NE6       29.99S
ROCKPORT       CLOUDY    68  66  93 S3        29.98S
*PORT ARANSAS  PTCLDY    67  65  96 S7        29.97F
*PORT LAVACA   CLOUDY    65  64  97 E6        30.00R
*INGLESIDE     MOCLDY    69  65  89 S10       29.97F
CORPUS CHRISTI CLOUDY    69  67  93 S8        29.97F
CORPUS NAS     CLOUDY    69  68  96 S10       29.97F
*ROBSTOWN      NOT AVBL
ALICE          CLOUDY    69  67  93 CALM      29.98R FOG
KINGSVILLE NAS MOCLDY    69  69 100 SE3       29.97F
COTULLA        CLOUDY    60  59  96 NE8       30.00F FOG
LAREDO         NOT AVBL
$$

TXZ248>255-190800-
DEEP SOUTH TEXAS

CITY           SKY/WX    TMP DP  RH WIND       PRES   REMARKS
BROWNSVILLE    CLOUDY    71  67  87 SE9       29.96F
PORT ISABEL    CLOUDY    70  67  90 S8        29.96F
*SOUTH PADRE   CLOUDY   N/A N/A N/A NE7       29.97F
HARLINGEN      CLOUDY    69  68  96 S5        29.96F
*HEBBRONVILLE  CLOUDY    64  64  97 CALM      30.00S
MCALLEN        CLOUDY    62  61  96 W7        29.99R FOG
*WESLACO       CLOUDY    64  62  94 CALM      29.97F
FALFURRIAS     CLOUDY    68  67  96 S3        29.97F
EDINBURG       CLOUDY    67  65  91 CALM      29.99R
*ZAPATA        DRIZZLE   61  61 100 NW5       29.99F
$$

TXZ213>215-236>238-242>244-246-247-251-254-255-190800-
CMAN STATIONS

STATION/POSITION TIME  TEMP    WIND        PRES    WAVE
                       AIR SEA DIR/SP/G            HT/PER
                 (UTC) (F)     (DEG/KT/KT) (MB)    (FT/S)
SABINE PASS      0600   57 61   50/  7/ 11 1016.7
SEA RIM ST PARK  0600   57      40/  4/  6 1018.3
NORTH JETTY/GLS  0600   60 62  120/ 18/ 20   N/A
EAGLE POINT      0600   60 63  110/ 15/ 20 1015.9
MORGANS POINT    0600   59      70/ 11/ 13 1016.0
MISSION/ARANSAS  0600   68     110/  6     1016.0
PORT O`CONNOR    0600           90/ 10/ 12   N/A
PORT ARANSAS     0600   67 66  150/ 10/ 10 1015.6
MALAQUITE BEACH  0600   68 69  150/ 11/ 12 1014.6
BAFFIN BAY       0600   68     150/  5/  7 1015.2
PORT ISABEL      0600   71 69  150/  8/ 10 1014.9
$$

GMZ080-GMZ150>470-190800-
OFFSHORE BUOY REPORTS

STATION/POSITION TIME  TEMP    WIND        PRES    WAVE
                       AIR SEA DIR/SP/G            HT/PER
                 (UTC) (F)     (DEG/KT/KT) (MB)    (FT/S)
20 E GALVESTON   0700   63 65   90/ 17/ 19 1015.1    4/ 4
90 E PT ARANSAS  0700   72 72  170/ 14/ 17 1015.4    4/ 6
35 NE PT MANSFLD 0600   72 71  160/ 14/ 14 1014.9    3/ 5
200 E PT ISABEL  0600   73 73  140/ 12/ 14 1016.9    3/ 6
$$


USA.gov is the U.S. government's official web portal to all federal, state and local government web resources and services.